Location: Bottens
(46.6171°N, 6.6605°E)
Time: 15:13:21
(UTC+00:00)

ADEOS Rocket - Pass Details

Date: 20 June 2021
Orbit: 858 x 1307 km, 98.7° (Epoch: 04 August)

Event Time Altitude Azimuth Distance (km) Brightness Sun altitude
Exits shadow 02:32:26 - 189° (S) 3,677 5.5 -9.3°
Reaches altitude 10° 02:33:53 10° 193° (SSW) 3,182 5.1 -9.1°
Maximum altitude 02:40:44 43° 262° (W) 1,580 3.8 -8.3°
Drops below altitude 10° 02:47:02 10° 333° (NNW) 2,913 5.8 -7.6°
Sets 02:49:37 0° 340° (NNW) 3,807 6.5 -7.3°
